Theta_e
331 326 325 328 326 324 321 321 328 326 325 323 324 325 325 324 323 324 324 324 326 325
329 328 325 327 326 322 325 321 324 323 323 323 323 324 326 323 324 323 325 325 325 322
325 325 325 323 321 322 321 320 321 320 320 319 319 319 322 322 323 323 325 326 323 324
322 320 319 318 318 318 320 318 317 316 319 318 317 321 323 321 320 321 322 323 322 322
318 318 317 316 316 316 315 316 315 316 315 315 316 318 319 318 319 319 320 321 322 320
315 315 314 314 315 315 315 314 313 314 314 314 316 317 319 319 320 320 321 321 321 322
313 314 314 311 310 311 312 312 313 312 312 313 313 316 318 319 319 321 321 320 322 322
313 313 312 312 312 311 312 310 312 311 311 312 315 317 318 318 320 322 320 322 320 320
312 311 311 311 311 311 311 310 311 311 311 312 317 311 310 313 318 319 320 321 320 321
310 309 310 310 309 309 310 311 311 311 310 314 317 306 306 309 317 320 320 321 322 321
310 309 310 309 308 310 312 311 311 312 312 315 311 304 303 306 318 321 321 322 322 322
310 309 309 307 307 310 309 310 311 313 313 313 314 303 302 306 319 318 321 321 322 320
311 309 307 307 307 309 311 311 312 313 314 309 311 304 302 306 320 320 322 322 319 312
311 311 309 309 310 310 312 312 313 313 314 312 309 307 302 301 319 322 320 319 316 317
Wind_Speed
9 8 8 5 9 9 10 11 8 8 9 10 12 12 11 10 10 10 10 14 10 8
7 8 7 9 9 10 9 9 13 14 13 13 13 13 11 10 12 10 11 10 11 10
7 7 6 7 9 11 12 14 14 14 13 13 13 12 12 12 12 11 9 9 13 9
9 8 10 12 13 14 13 13 15 13 14 12 14 15 12 11 14 17 13 13 12 12
11 12 13 13 14 14 15 14 15 14 12 13 18 12 13 12 12 14 13 15 12 14
12 12 12 13 14 14 13 13 13 13 11 16 15 13 13 12 13 13 14 12 11 12
11 11 9 10 10 12 12 13 12 11 16 15 15 15 14 11 13 11 10 10 11 12
11 9 11 13 11 12 13 13 17 15 15 15 12 10 10 11 10 9 7 9 7 8
10 11 10 12 13 16 13 12 15 16 15 14 9 9 3 8 10 8 6 6 5 6
12 12 13 15 16 15 15 15 15 14 15 11 8 9 8 8 10 8 6 6 7 3
12 11 12 13 14 14 12 13 13 13 13 10 5 9 9 11 10 8 6 7 5 6
14 10 11 10 14 14 13 12 12 10 11 6 8 11 10 14 9 5 7 5 8 9
9 8 12 11 13 12 13 13 10 8 7 6 9 10 15 12 7 5 4 6 9 13
6 13 7 10 9 11 10 10 10 9 7 8 7 11 11 8 7 6 6 7 8 10
Wind_Direction
324 298 299 321 340 314 314 304 321 296 288 285 292 281 281 287 276 283 268 258 249 248
273 296 313 309 310 290 316 315 307 307 297 283 284 280 276 268 275 275 270 259 246 245
311 319 350 329 313 307 312 310 301 296 297 300 288 292 286 281 277 274 265 251 257 238
327 322 319 315 315 314 307 299 296 291 275 291 285 272 280 294 286 276 267 253 244 237
330 331 325 324 313 309 301 294 291 286 290 293 283 291 303 282 275 270 261 256 243 251
339 335 322 312 316 308 309 321 333 321 305 277 286 296 298 277 275 266 265 258 243 245
335 317 358 347 332 326 313 303 293 281 274 294 293 293 291 284 277 274 266 244 234 232
317 12 335 323 314 299 300 305 294 301 299 292 288 300 293 304 283 293 265 242 212 222
334 340 314 309 305 306 306 290 296 302 295 291 313 309 308 302 299 289 282 254 241 133
353 319 333 326 327 324 321 312 305 305 303 311 311 18 351 317 294 276 283 243 230 210
331 356 339 330 331 329 319 318 315 313 305 305 66 14 4 345 286 265 268 226 207 131
356 347 321 329 338 326 325 317 318 311 312 350 357 3 329 358 281 240 246 182 127 118
22 327 322 352 329 332 334 330 328 337 12 21 10 348 1 316 256 216 169 123 95 109
359 311 351 348 342 330 334 330 342 330 33 26 8 349 334 329 274 204 174 154 148 139